| time (UTC) | temp C | wind direction | speed KPH | gust KPH | rain 1hr cm | rain 24hr cm | rain mn cm | humidity % | barometer mb |
| 20260502130551 | 18 | 360 | 3.2 | 14.5 | 0.00 | 0.00 | 0.00 | 42 | 1014.1 |
| 20260502123555 | 17 | 0 | 3.2 | 9.7 | 0.00 | 0.00 | 0.00 | 38 | 1013.8 |
| 20260502123114 | 17 | 360 | 3.2 | 9.7 | 0.00 | 0.00 | 0.00 | 38 | 1013.7 |
| 20260502122551 | 17 | 360 | 4.8 | 9.7 | 0.00 | 0.00 | 0.00 | 36 | 1013.7 |
| 20260502122054 | 17 | 360 | 1.6 | 9.7 | 0.00 | 0.00 | 0.00 | 37 | 1013.7 |
| 20260502121556 | 17 | 0 | 1.6 | 6.4 | 0.00 | 0.00 | 0.00 | 34 | 1013.7 |
| 20260502121052 | 17 | 360 | 3.2 | 6.4 | 0.00 | 0.00 | 0.00 | 33 | 1013.7 |
| 20260502120551 | 17 | 360 | 1.6 | 6.4 | 0.00 | 0.00 | 0.00 | 33 | 1013.6 |
| 20260502120110 | 16 | 360 | 0.0 | 3.2 | 0.00 | 0.00 | 0.00 | 33 | 1013.6 |
| 20260502115548 | 16 | 360 | 0.0 | 3.2 | 0.00 | 0.00 | 0.00 | 33 | 1013.5 |
| 20260502115048 | 16 | 0 | 0.0 | 3.2 | 0.00 | 0.00 | 0.00 | 34 | 1013.5 |
| 20260502114553 | 16 | 0 | 0.0 | 4.8 | 0.00 | 0.00 | 0.00 | 34 | 1013.5 |
| 20260502114048 | 16 | 360 | 0.0 | 6.4 | 0.00 | 0.00 | 0.00 | 34 | 1013.5 |
| 20260502113548 | 16 | 0 | 0.0 | 6.4 | 0.00 | 0.00 | 0.00 | 34 | 1013.4 |
| 20260502113111 | 16 | 360 | 1.6 | 6.4 | 0.00 | 0.00 | 0.00 | 34 | 1013.5 |
| 20260502112552 | 16 | 360 | 0.0 | 6.4 | 0.00 | 0.00 | 0.00 | 34 | 1013.5 |
| 20260502112051 | 16 | 360 | 0.0 | 1.6 | 0.00 | 0.00 | 0.00 | 34 | 1013.4 |
| 20260502111554 | 16 | 0 | 0.0 | 1.6 | 0.00 | 0.00 | 0.00 | 33 | 1013.5 |
| 20260502111054 | 16 | 0 | 0.0 | 3.2 | 0.00 | 0.00 | 0.00 | 34 | 1013.4 |
| 20260502110554 | 16 | 0 | 0.0 | 3.2 | 0.00 | 0.00 | 0.00 | 33 | 1013.5 |
| 20260502110101 | 16 | 0 | 0.0 | 3.2 | 0.00 | 0.00 | 0.00 | 33 | 1013.5 |
| 20260502105552 | 16 | 0 | 0.0 | 4.8 | 0.00 | 0.00 | 0.00 | 33 | 1013.6 |
| 20260502105051 | 16 | 0 | 0.0 | 4.8 | 0.00 | 0.00 | 0.00 | 33 | 1013.5 |
| 20260502104558 | 16 | 360 | 1.6 | 4.8 | 0.00 | 0.00 | 0.00 | 33 | 1013.6 |
| 20260502104051 | 16 | 0 | 0.0 | 3.2 | 0.00 | 0.00 | 0.00 | 34 | 1013.6 |
| 20260502103551 | 16 | 0 | 0.0 | 8.0 | 0.00 | 0.00 | 0.00 | 33 | 1013.7 |
| 20260502103057 | 16 | 360 | 1.6 | 8.0 | 0.00 | 0.00 | 0.00 | 33 | 1013.7 |
| 20260502102548 | 16 | 360 | 4.8 | 8.0 | 0.00 | 0.00 | 0.00 | 34 | 1013.7 |
| 20260502102051 | 15 | 360 | 1.6 | 6.4 | 0.00 | 0.00 | 0.00 | 35 | 1013.7 |
| 20260502101602 | 15 | 360 | 3.2 | 6.4 | 0.00 | 0.00 | 0.00 | 34 | 1013.8 |
| 20260502101048 | 16 | 360 | 0.0 | 6.4 | 0.00 | 0.00 | 0.00 | 34 | 1013.7 |
| 20260502100548 | 16 | 0 | 0.0 | 3.2 | 0.00 | 0.00 | 0.00 | 34 | 1013.5 |
| 20260502091051 | 16 | 0 | 0.0 | 0.0 | 0.00 | 0.00 | 0.00 | 31 | 1013.0 |
| 20260502090551 | 17 | 0 | 0.0 | 3.2 | 0.00 | 0.00 | 0.00 | 30 | 1013.1 |
| 20260502071053 | 18 | 360 | 0.0 | 4.8 | 0.00 | 0.00 | 0.00 | 28 | 1013.5 |
| 20260502070555 | 18 | 0 | 0.0 | 1.6 | 0.00 | 0.00 | 0.00 | 27 | 1013.5 |
| 20260502070111 | 18 | 0 | 0.0 | 1.6 | 0.00 | 0.00 | 0.00 | 27 | 1013.5 |
| 20260502065555 | 18 | 0 | 0.0 | 1.6 | 0.00 | 0.00 | 0.00 | 26 | 1013.6 |
| 20260502065053 | 19 | 0 | 0.0 | 3.2 | 0.00 | 0.00 | 0.00 | 26 | 1013.5 |
| 20260502064557 | 19 | 0 | 0.0 | 3.2 | 0.00 | 0.00 | 0.00 | 26 | 1013.6 |
| 20260502064053 | 20 | 0 | 0.0 | 3.2 | 0.00 | 0.00 | 0.00 | 26 | 1013.4 |
| 20260502063553 | 20 | 0 | 0.0 | 4.8 | 0.00 | 0.00 | 0.00 | 26 | 1013.4 |
| 20260502063101 | 20 | 0 | 0.0 | 4.8 | 0.00 | 0.00 | 0.00 | 26 | 1013.3 |
| 20260502062553 | 19 | 360 | 1.6 | 4.8 | 0.00 | 0.00 | 0.00 | 27 | 1013.2 |
| 20260502062053 | 19 | 0 | 0.0 | 0.0 | 0.00 | 0.00 | 0.00 | 27 | 1013.2 |
| 20260502061558 | 20 | 0 | 0.0 | 1.6 | 0.00 | 0.00 | 0.00 | 26 | 1013.2 |
| 20260502061055 | 20 | 0 | 0.0 | 3.2 | 0.00 | 0.00 | 0.00 | 26 | 1013.2 |
| 20260502060553 | 20 | 0 | 0.0 | 3.2 | 0.00 | 0.00 | 0.00 | 26 | 1013.2 |
| 20260502060058 | 20 | 360 | 0.0 | 3.2 | 0.00 | 0.00 | 0.00 | 25 | 1013.1 |
| 20260502055554 | 20 | 0 | 0.0 | 3.2 | 0.00 | 0.00 | 0.00 | 25 | 1013.2 |
| 20260502055058 | 21 | 0 | 0.0 | 3.2 | 0.00 | 0.00 | 0.00 | 24 | 1013.1 |
| 20260502054555 | 21 | 360 | 0.0 | 3.2 | 0.00 | 0.00 | 0.00 | 23 | 1013.0 |
| 20260502054053 | 22 | 0 | 0.0 | 6.4 | 0.00 | 0.00 | 0.00 | 23 | 1013.0 |
| 20260502053553 | 22 | 0 | 0.0 | 6.4 | 0.00 | 0.00 | 0.00 | 23 | 1013.0 |
| 20260502053101 | 22 | 360 | 0.0 | 6.4 | 0.00 | 0.00 | 0.00 | 22 | 1013.0 |
| 20260502052549 | 22 | 0 | 1.6 | 8.0 | 0.00 | 0.00 | 0.00 | 22 | 1013.1 |
| 20260502052052 | 22 | 360 | 1.6 | 8.0 | 0.00 | 0.00 | 0.00 | 22 | 1013.0 |
| 20260502051602 | 22 | 360 | 3.2 | 6.4 | 0.00 | 0.00 | 0.00 | 22 | 1013.0 |
| 20260502051049 | 23 | 360 | 3.2 | 6.4 | 0.00 | 0.00 | 0.00 | 22 | 1012.9 |
| 20260502050549 | 23 | 360 | 3.2 | 8.0 | 0.00 | 0.00 | 0.00 | 22 | 1012.9 |
| 20260502050055 | 23 | 360 | 3.2 | 8.0 | 0.00 | 0.00 | 0.00 | 22 | 1013.0 |
| 20260502045553 | 23 | 360 | 3.2 | 8.0 | 0.00 | 0.00 | 0.00 | 22 | 1012.9 |
| 20260502045053 | 23 | 360 | 3.2 | 8.0 | 0.00 | 0.00 | 0.00 | 22 | 1012.9 |
| 20260502044633 | 23 | 360 | 3.2 | 8.0 | 0.00 | 0.00 | 0.00 | 22 | 1012.8 |
| 20260502044052 | 23 | 360 | 3.2 | 8.0 | 0.00 | 0.00 | 0.00 | 22 | 1012.8 |
| 20260502043553 | 23 | 360 | 4.8 | 8.0 | 0.00 | 0.00 | 0.00 | 22 | 1012.7 |
| 20260502043104 | 23 | 360 | 3.2 | 8.0 | 0.00 | 0.00 | 0.00 | 22 | 1012.7 |
| 20260502042548 | 23 | 360 | 4.8 | 8.0 | 0.00 | 0.00 | 0.00 | 22 | 1012.6 |
| 20260502042052 | 23 | 360 | 3.2 | 6.4 | 0.00 | 0.00 | 0.00 | 22 | 1012.6 |
| 20260502041556 | 23 | 360 | 3.2 | 6.4 | 0.00 | 0.00 | 0.00 | 22 | 1012.6 |
| 20260502041056 | 23 | 360 | 3.2 | 6.4 | 0.00 | 0.00 | 0.00 | 22 | 1012.5 |
| 20260502040552 | 23 | 360 | 3.2 | 6.4 | 0.00 | 0.00 | 0.00 | 22 | 1012.5 |
| 20260502040104 | 23 | 360 | 3.2 | 6.4 | 0.00 | 0.00 | 0.00 | 22 | 1012.5 |
| 20260502035549 | 23 | 360 | 1.6 | 6.4 | 0.00 | 0.00 | 0.00 | 22 | 1012.4 |
| 20260502035049 | 23 | 360 | 1.6 | 8.0 | 0.00 | 0.00 | 0.00 | 22 | 1012.4 |
| 20260502034556 | 23 | 360 | 3.2 | 9.7 | 0.00 | 0.00 | 0.00 | 22 | 1012.3 |
| 20260502034049 | 24 | 360 | 3.2 | 9.7 | 0.00 | 0.00 | 0.00 | 22 | 1012.3 |
| 20260502033554 | 24 | 0 | 3.2 | 6.4 | 0.00 | 0.00 | 0.00 | 22 | 1012.2 |
| 20260502033057 | 24 | 360 | 1.6 | 4.8 | 0.00 | 0.00 | 0.00 | 22 | 1012.1 |
| 20260502032549 | 24 | 360 | 1.6 | 4.8 | 0.00 | 0.00 | 0.00 | 22 | 1012.1 |
| 20260502032049 | 24 | 360 | 1.6 | 8.0 | 0.00 | 0.00 | 0.00 | 22 | 1011.9 |
| 20260502031556 | 24 | 360 | 3.2 | 8.0 | 0.00 | 0.00 | 0.00 | 22 | 1011.9 |
| 20260502031052 | 24 | 360 | 3.2 | 6.4 | 0.00 | 0.00 | 0.00 | 22 | 1011.8 |
| 20260502030550 | 24 | 360 | 3.2 | 6.4 | 0.00 | 0.00 | 0.00 | 22 | 1011.7 |
| 20260502025549 | 24 | 360 | 0.0 | 3.2 | 0.00 | 0.00 | 0.00 | 21 | 1011.6 |
| 20260502025049 | 25 | 0 | 0.0 | 3.2 | 0.00 | 0.00 | 0.00 | 20 | 1011.3 |
| 20260502024558 | 25 | 360 | 0.0 | 6.4 | 0.00 | 0.00 | 0.00 | 20 | 1011.3 |
| 20260502024050 | 25 | 0 | 0.0 | 6.4 | 0.00 | 0.00 | 0.00 | 20 | 1011.3 |
| 20260502023549 | 25 | 0 | 0.0 | 0.0 | 0.00 | 0.00 | 0.00 | 20 | 1011.2 |
| 20260502023056 | 25 | 0 | 0.0 | 4.8 | 0.00 | 0.00 | 0.00 | 20 | 1011.2 |
| 20260502022551 | 26 | 0 | 0.0 | 6.4 | 0.00 | 0.00 | 0.00 | 20 | 1011.0 |
| 20260502022049 | 26 | 0 | 0.0 | 9.7 | 0.00 | 0.00 | 0.00 | 20 | 1010.9 |
| 20260502021553 | 26 | 360 | 3.2 | 9.7 | 0.00 | 0.00 | 0.00 | 20 | 1010.9 |
| 20260502021048 | 26 | 360 | 1.6 | 6.4 | 0.00 | 0.00 | 0.00 | 20 | 1010.9 |
| 20260502020551 | 26 | 0 | 1.6 | 8.0 | 0.00 | 0.00 | 0.00 | 19 | 1010.8 |
| 20260502020058 | 26 | 360 | 1.6 | 8.0 | 0.00 | 0.00 | 0.00 | 19 | 1010.9 |
| 20260502015549 | 26 | 360 | 3.2 | 9.7 | 0.00 | 0.00 | 0.00 | 17 | 1010.8 |
| 20260502015049 | 27 | 360 | 3.2 | 9.7 | 0.00 | 0.00 | 0.00 | 17 | 1010.7 |
| 20260502014549 | 27 | 360 | 4.8 | 14.5 | 0.00 | 0.00 | 0.00 | 17 | 1010.7 |
| 20260502014049 | 27 | 360 | 4.8 | 19.3 | 0.00 | 0.00 | 0.00 | 17 | 1010.7 |
| 20260502013549 | 27 | 360 | 6.4 | 19.3 | 0.00 | 0.00 | 0.00 | 17 | 1010.6 |
| 20260502013057 | 27 | 360 | 3.2 | 12.9 | 0.00 | 0.00 | 0.00 | 17 | 1010.4 |
| 20260502012552 | 27 | 360 | 3.2 | 19.3 | 0.00 | 0.00 | 0.00 | 16 | 1010.4 |
| 20260502012049 | 27 | 360 | 4.8 | 19.3 | 0.00 | 0.00 | 0.00 | 16 | 1010.4 |
| 20260502011553 | 28 | 360 | 8.0 | 16.1 | 0.00 | 0.00 | 0.00 | 16 | 1010.4 |
| 20260502011048 | 28 | 360 | 4.8 | 14.5 | 0.00 | 0.00 | 0.00 | 16 | 1010.4 |
| 20260502010551 | 28 | 360 | 4.8 | 17.7 | 0.00 | 0.00 | 0.00 | 15 | 1010.4 |
| 20260502010052 | 28 | 360 | 3.2 | 20.9 | 0.00 | 0.00 | 0.00 | 15 | 1010.4 |
| 20260502005549 | 28 | 360 | 11.3 | 20.9 | 0.00 | 0.00 | 0.00 | 16 | 1010.4 |
| 20260502005052 | 28 | 360 | 4.8 | 16.1 | 0.00 | 0.00 | 0.00 | 16 | 1010.2 |
| 20260502004552 | 28 | 360 | 8.0 | 16.1 | 0.00 | 0.00 | 0.00 | 16 | 1010.2 |
| 20260502004051 | 28 | 360 | 6.4 | 17.7 | 0.00 | 0.00 | 0.00 | 16 | 1010.3 |
| 20260502003548 | 28 | 360 | 6.4 | 22.5 | 0.00 | 0.00 | 0.00 | 16 | 1010.3 |
| 20260502003053 | 28 | 360 | 8.0 | 22.5 | 0.00 | 0.00 | 0.00 | 16 | 1010.3 |
| 20260502002552 | 28 | 360 | 9.7 | 17.7 | 0.00 | 0.00 | 0.00 | 16 | 1010.3 |
| 20260502002049 | 28 | 360 | 4.8 | 17.7 | 0.00 | 0.00 | 0.00 | 16 | 1010.3 |
| 20260502001556 | 28 | 360 | 4.8 | 19.3 | 0.00 | 0.00 | 0.00 | 16 | 1010.2 |
| 20260502001048 | 28 | 360 | 8.0 | 24.1 | 0.00 | 0.00 | 0.00 | 16 | 1010.3 |
| 20260502000551 | 28 | 360 | 6.4 | 24.1 | 0.00 | 0.00 | 0.00 | 16 | 1010.3 |
| 20260502000059 | 28 | 360 | 4.8 | 24.1 | 0.00 | 0.00 | 0.00 | 16 | 1010.3 |
| 20260501235549 | 28 | 360 | 12.9 | 24.1 | 0.00 | 0.00 | 0.00 | 16 | 1010.4 |
| 20260501235052 | 28 | 360 | 8.0 | 22.5 | 0.00 | 0.00 | 0.00 | 15 | 1010.4 |
| 20260501234550 | 29 | 360 | 9.7 | 19.3 | 0.00 | 0.00 | 0.00 | 15 | 1010.3 |
| 20260501234051 | 29 | 327 | 3.2 | 17.7 | 0.00 | 0.00 | 0.00 | 16 | 1010.3 |
| 20260501233549 | 28 | 360 | 8.0 | 17.7 | 0.00 | 0.00 | 0.00 | 16 | 1010.3 |
| 20260501233049 | 29 | 360 | 3.2 | 17.7 | 0.00 | 0.00 | 0.00 | 16 | 1010.3 |
| 20260501232552 | 28 | 360 | 9.7 | 17.7 | 0.00 | 0.00 | 0.00 | 15 | 1010.4 |
| 20260501232052 | 28 | 360 | 6.4 | 17.7 | 0.00 | 0.00 | 0.00 | 16 | 1010.4 |
| 20260501231556 | 28 | 360 | 9.7 | 17.7 | 0.00 | 0.00 | 0.00 | 17 | 1010.3 |
| 20260501231049 | 28 | 360 | 3.2 | 24.1 | 0.00 | 0.00 | 0.00 | 17 | 1010.3 |
| 20260501230549 | 28 | 262 | 11.3 | 24.1 | 0.00 | 0.00 | 0.00 | 17 | 1010.4 |
| 20260501225549 | 28 | 304 | 8.0 | 22.5 | 0.00 | 0.00 | 0.00 | 17 | 1010.4 |
| 20260501225048 | 28 | 266 | 9.7 | 22.5 | 0.00 | 0.00 | 0.00 | 17 | 1010.4 |
| 20260501224557 | 29 | 310 | 9.7 | 19.3 | 0.00 | 0.00 | 0.00 | 17 | 1010.4 |
| 20260501224055 | 29 | 360 | 3.2 | 16.1 | 0.00 | 0.00 | 0.00 | 17 | 1010.6 |
| 20260501223548 | 28 | 360 | 3.2 | 20.9 | 0.00 | 0.00 | 0.00 | 17 | 1010.5 |
| 20260501223103 | 28 | 360 | 9.7 | 20.9 | 0.00 | 0.00 | 0.00 | 17 | 1010.8 |
| 20260501222552 | 28 | 360 | 6.4 | 19.3 | 0.00 | 0.00 | 0.00 | 17 | 1010.8 |
| 20260501222049 | 29 | 360 | 3.2 | 12.9 | 0.00 | 0.00 | 0.00 | 16 | 1010.9 |
| 20260501221559 | 28 | 360 | 4.8 | 12.9 | 0.00 | 0.00 | 0.00 | 17 | 1010.9 |
| 20260501221048 | 28 | 360 | 4.8 | 22.5 | 0.00 | 0.00 | 0.00 | 18 | 1011.0 |
| 20260501220552 | 28 | 360 | 3.2 | 22.5 | 0.00 | 0.00 | 0.00 | 18 | 1011.1 |
| 20260501220108 | 28 | 360 | 9.7 | 22.5 | 0.00 | 0.00 | 0.00 | 18 | 1011.2 |
| 20260501215548 | 28 | 360 | 8.0 | 19.3 | 0.00 | 0.00 | 0.00 | 18 | 1011.2 |
| 20260501215051 | 28 | 360 | 8.0 | 22.5 | 0.00 | 0.00 | 0.00 | 19 | 1011.3 |
| 20260501214607 | 28 | 360 | 9.7 | 22.5 | 0.00 | 0.00 | 0.00 | 18 | 1011.4 |
| 20260501214051 | 28 | 360 | 6.4 | 19.3 | 0.00 | 0.00 | 0.00 | 19 | 1011.4 |
| 20260501213556 | 28 | 360 | 3.2 | 19.3 | 0.00 | 0.00 | 0.00 | 19 | 1011.3 |
| 20260501213105 | 28 | 360 | 9.7 | 16.1 | 0.00 | 0.00 | 0.00 | 19 | 1011.5 |
| 20260501212549 | 28 | 360 | 4.8 | 25.7 | 0.00 | 0.00 | 0.00 | 20 | 1011.6 |
| 20260501212053 | 28 | 360 | 8.0 | 25.7 | 0.00 | 0.00 | 0.00 | 20 | 1011.6 |
| 20260501211612 | 28 | 360 | 6.4 | 17.7 | 0.00 | 0.00 | 0.00 | 20 | 1011.6 |
| 20260501211052 | 27 | 360 | 8.0 | 24.1 | 0.00 | 0.00 | 0.00 | 20 | 1011.7 |
| 20260501210551 | 27 | 360 | 9.7 | 24.1 | 0.00 | 0.00 | 0.00 | 20 | 1011.8 |
| 20260501210056 | 27 | 291 | 4.8 | 16.1 | 0.00 | 0.00 | 0.00 | 21 | 1011.8 |
| 20260501205549 | 27 | 56 | 8.0 | 16.1 | 0.00 | 0.00 | 0.00 | 20 | 1011.9 |
| 20260501205054 | 27 | 9 | 4.8 | 22.5 | 0.00 | 0.00 | 0.00 | 21 | 1012.0 |
| 20260501204553 | 27 | 39 | 4.8 | 22.5 | 0.00 | 0.00 | 0.00 | 21 | 1012.1 |
| 20260501204052 | 27 | 352 | 9.7 | 22.5 | 0.00 | 0.00 | 0.00 | 21 | 1012.0 |
| 20260501203552 | 27 | 360 | 9.7 | 20.9 | 0.00 | 0.00 | 0.00 | 21 | 1012.1 |
| 20260501203058 | 27 | 360 | 9.7 | 19.3 | 0.00 | 0.00 | 0.00 | 22 | 1012.1 |
| 20260501202552 | 27 | 360 | 6.4 | 16.1 | 0.00 | 0.00 | 0.00 | 22 | 1012.0 |
| 20260501202054 | 27 | 360 | 6.4 | 16.1 | 0.00 | 0.00 | 0.00 | 23 | 1012.1 |
| 20260501201558 | 26 | 360 | 6.4 | 14.5 | 0.00 | 0.00 | 0.00 | 23 | 1012.3 |
| 20260501201048 | 26 | 360 | 4.8 | 14.5 | 0.00 | 0.00 | 0.00 | 23 | 1012.2 |
| 20260501200548 | 26 | 360 | 6.4 | 20.9 | 0.00 | 0.00 | 0.00 | 23 | 1012.2 |
| 20260501200053 | 26 | 360 | 9.7 | 20.9 | 0.00 | 0.00 | 0.00 | 23 | 1012.4 |
| 20260501195552 | 26 | 360 | 4.8 | 19.3 | 0.00 | 0.00 | 0.00 | 23 | 1012.3 |
| 20260501195052 | 26 | 360 | 6.4 | 19.3 | 0.00 | 0.00 | 0.00 | 23 | 1012.4 |
| 20260501194618 | 26 | 360 | 4.8 | 17.7 | 0.00 | 0.00 | 0.00 | 24 | 1012.5 |
| 20260501194049 | 26 | 360 | 9.7 | 17.7 | 0.00 | 0.00 | 0.00 | 24 | 1012.6 |
| 20260501193548 | 26 | 360 | 8.0 | 16.1 | 0.00 | 0.00 | 0.00 | 24 | 1012.7 |
| 20260501193056 | 26 | 360 | 1.6 | 16.1 | 0.00 | 0.00 | 0.00 | 24 | 1012.7 |
| 20260501192548 | 26 | 360 | 4.8 | 14.5 | 0.00 | 0.00 | 0.00 | 23 | 1012.9 |
| 20260501192052 | 26 | 360 | 6.4 | 14.5 | 0.00 | 0.00 | 0.00 | 23 | 1012.9 |
| 20260501191600 | 26 | 360 | 4.8 | 16.1 | 0.00 | 0.00 | 0.00 | 24 | 1013.0 |
| 20260501191048 | 25 | 360 | 4.8 | 16.1 | 0.00 | 0.00 | 0.00 | 24 | 1013.0 |
| 20260501190553 | 26 | 331 | 4.8 | 20.9 | 0.00 | 0.00 | 0.00 | 23 | 1013.1 |
| 20260501190100 | 26 | 360 | 4.8 | 20.9 | 0.00 | 0.00 | 0.00 | 24 | 1013.2 |
| 20260501185548 | 25 | 360 | 4.8 | 17.7 | 0.00 | 0.00 | 0.00 | 25 | 1013.3 |
| 20260501185052 | 25 | 55 | 1.6 | 12.9 | 0.00 | 0.00 | 0.00 | 25 | 1013.3 |
| 20260501184553 | 25 | 267 | 4.8 | 19.3 | 0.00 | 0.00 | 0.00 | 26 | 1013.5 |
| 20260501184049 | 25 | 28 | 4.8 | 19.3 | 0.00 | 0.00 | 0.00 | 26 | 1013.5 |
| 20260501183553 | 25 | 360 | 6.4 | 14.5 | 0.00 | 0.00 | 0.00 | 26 | 1013.6 |
| 20260501183057 | 24 | 360 | 3.2 | 12.9 | 0.00 | 0.00 | 0.00 | 26 | 1013.6 |
| 20260501182551 | 25 | 360 | 4.8 | 12.9 | 0.00 | 0.00 | 0.00 | 26 | 1013.7 |
| 20260501182048 | 24 | 360 | 4.8 | 12.9 | 0.00 | 0.00 | 0.00 | 27 | 1013.7 |
| 20260501181618 | 24 | 360 | 3.2 | 12.9 | 0.00 | 0.00 | 0.00 | 27 | 1013.8 |
| 20260501181051 | 24 | 360 | 3.2 | 14.5 | 0.00 | 0.00 | 0.00 | 27 | 1013.9 |
| 20260501180548 | 24 | 360 | 6.4 | 16.1 | 0.00 | 0.00 | 0.00 | 29 | 1013.9 |
| 20260501180101 | 23 | 360 | 3.2 | 16.1 | 0.00 | 0.00 | 0.00 | 29 | 1013.9 |
| 20260501175552 | 23 | 360 | 8.0 | 16.1 | 0.00 | 0.00 | 0.00 | 27 | 1014.0 |
| 20260501175052 | 23 | 360 | 6.4 | 16.1 | 0.00 | 0.00 | 0.00 | 31 | 1013.9 |
| 20260501174600 | 23 | 360 | 4.8 | 16.1 | 0.00 | 0.00 | 0.00 | 33 | 1014.0 |
| 20260501174052 | 23 | 360 | 6.4 | 12.9 | 0.00 | 0.00 | 0.00 | 34 | 1013.9 |
| 20260501173552 | 23 | 360 | 1.6 | 14.5 | 0.00 | 0.00 | 0.00 | 34 | 1014.0 |
| 20260501173113 | 23 | 360 | 0.0 | 14.5 | 0.00 | 0.00 | 0.00 | 35 | 1014.0 |
| 20260501172552 | 23 | 360 | 3.2 | 14.5 | 0.00 | 0.00 | 0.00 | 36 | 1014.0 |
| 20260501172052 | 23 | 360 | 1.6 | 9.7 | 0.00 | 0.00 | 0.00 | 36 | 1014.0 |
| 20260501171555 | 23 | 360 | 3.2 | 9.7 | 0.00 | 0.00 | 0.00 | 36 | 1014.0 |
| 20260501171048 | 23 | 360 | 3.2 | 9.7 | 0.00 | 0.00 | 0.00 | 37 | 1014.0 |
| 20260501170552 | 23 | 360 | 3.2 | 9.7 | 0.00 | 0.00 | 0.00 | 38 | 1014.0 |
| 20260501170052 | 22 | 0 | 1.6 | 8.0 | 0.00 | 0.00 | 0.00 | 39 | 1013.9 |
| 20260501165549 | 22 | 360 | 1.6 | 9.7 | 0.00 | 0.00 | 0.00 | 41 | 1014.0 |
| 20260501165049 | 21 | 0 | 1.6 | 12.9 | 0.00 | 0.00 | 0.00 | 41 | 1013.9 |
| 20260501164556 | 21 | 360 | 6.4 | 14.5 | 0.00 | 0.00 | 0.00 | 42 | 1014.0 |
| 20260501164048 | 21 | 360 | 3.2 | 14.5 | 0.00 | 0.00 | 0.00 | 41 | 1014.0 |
| 20260501163549 | 21 | 360 | 1.6 | 9.7 | 0.00 | 0.00 | 0.00 | 42 | 1014.0 |
| 20260501163054 | 21 | 360 | 1.6 | 9.7 | 0.00 | 0.00 | 0.00 | 42 | 1014.0 |
| 20260501162550 | 21 | 360 | 1.6 | 8.0 | 0.00 | 0.00 | 0.00 | 42 | 1013.9 |
| 20260501162048 | 21 | 360 | 3.2 | 8.0 | 0.00 | 0.00 | 0.00 | 43 | 1014.0 |
| 20260501161552 | 21 | 360 | 1.6 | 9.7 | 0.00 | 0.00 | 0.00 | 43 | 1013.9 |
| 20260501161050 | 21 | 360 | 1.6 | 9.7 | 0.00 | 0.00 | 0.00 | 44 | 1013.9 |
| 20260501160550 | 21 | 360 | 1.6 | 8.0 | 0.00 | 0.00 | 0.00 | 44 | 1013.8 |
| 20260501160054 | 20 | 0 | 3.2 | 9.7 | 0.00 | 0.00 | 0.00 | 45 | 1013.9 |
| 20260501155549 | 20 | 360 | 4.8 | 9.7 | 0.00 | 0.00 | 0.00 | 45 | 1013.9 |
| 20260501155049 | 20 | 0 | 3.2 | 8.0 | 0.00 | 0.00 | 0.00 | 46 | 1013.8 |
| 20260501154555 | 20 | 0 | 3.2 | 8.0 | 0.00 | 0.00 | 0.00 | 47 | 1013.7 |
| 20260501154048 | 20 | 360 | 0.0 | 9.7 | 0.00 | 0.00 | 0.00 | 48 | 1013.5 |
| 20260501153551 | 20 | 360 | 4.8 | 9.7 | 0.00 | 0.00 | 0.00 | 48 | 1013.6 |
| 20260501153116 | 20 | 360 | 1.6 | 9.7 | 0.00 | 0.00 | 0.00 | 50 | 1013.5 |
| 20260501152549 | 19 | 0 | 1.6 | 9.7 | 0.00 | 0.00 | 0.00 | 53 | 1013.5 |
| 20260501152049 | 19 | 0 | 4.8 | 12.9 | 0.00 | 0.00 | 0.00 | 52 | 1013.4 |
| 20260501151600 | 19 | 360 | 3.2 | 12.9 | 0.00 | 0.00 | 0.00 | 53 | 1013.4 |
| 20260501151056 | 18 | 360 | 1.6 | 8.0 | 0.00 | 0.00 | 0.00 | 53 | 1013.3 |
| 20260501150558 | 18 | 360 | 1.6 | 6.4 | 0.00 | 0.00 | 0.00 | 54 | 1013.3 |
| 20260501150111 | 18 | 0 | 1.6 | 8.0 | 0.00 | 0.00 | 0.00 | 54 | 1013.4 |
| 20260501145550 | 18 | 360 | 3.2 | 8.0 | 0.00 | 0.00 | 0.00 | 55 | 1013.4 |
| 20260501145052 | 18 | 360 | 0.0 | 6.4 | 0.00 | 0.00 | 0.00 | 56 | 1013.4 |
| 20260501144553 | 17 | 360 | 1.6 | 8.0 | 0.00 | 0.00 | 0.00 | 57 | 1013.2 |
| 20260501144051 | 17 | 360 | 1.6 | 8.0 | 0.00 | 0.00 | 0.00 | 58 | 1013.2 |
| 20260501143551 | 17 | 360 | 3.2 | 8.0 | 0.00 | 0.00 | 0.00 | 58 | 1013.1 |
| 20260501143053 | 17 | 360 | 3.2 | 8.0 | 0.00 | 0.00 | 0.00 | 59 | 1013.2 |
| 20260501142552 | 17 | 360 | 1.6 | 8.0 | 0.00 | 0.00 | 0.00 | 59 | 1013.2 |
| 20260501142053 | 17 | 360 | 3.2 | 9.7 | 0.00 | 0.00 | 0.00 | 60 | 1013.2 |